Orbital Elements at Epoch 2459000.5 (2020-May-31.0) TDB
Reference: JPL 16 (heliocentric ecliptic J2000)
Element | Value | Uncertainty (1-sigma) | Units |
e | .02817461977771005 | 9.9414e-08 | |
a | 3.11126383343573 | 5.6548e-08 | au |
q | 3.023605157900537 | 3.1549e-07 | au |
i | 12.81213587828966 | 6.1024e-06 | deg |
node | 111.576516981443 | 4.8753e-05 | deg |
peri | 74.17690314212231 | 0.00013692 | deg |
M | 355.2850302821626 | 0.00012491 | deg |
tp | 2459026.753069894681 (2020-Jun-26.25306989) | 0.00069553 | TDB |
period | 2004.489048218104 5.49 | 5.4648e-05 1.496e-07 | d yr |
n | .1795968904494754 | 4.8963e-09 | deg/d |
Q | 3.198922508970922 | 5.8141e-08 | au |
|
| | Orbit Determination Parameters
Additional Information
|